Temperature
19 19 19 19 19 19 19 19 19 18 18 18 18 17 17 17 17 16 16 16 16 16 15 15 15 15 14 14 14 14 14 14 14 15 15 15 16 16 16 16 16 16 16
19 19 19 19 19 19 19 19 19 18 18 18 18 17 17 17 16 16 16 16 15 15 15 15 15 14 14 14 14 14 14 14 14 14 14 14 15 16 16 16 16 16 16
19 19 19 19 19 19 19 19 19 18 18 18 17 17 17 16 16 16 16 15 15 15 15 14 14 14 14 13 13 13 13 13 13 13 13 13 13 14 15 15 15 16 16
19 19 19 19 19 19 19 19 19 19 18 18 17 17 17 16 16 16 15 15 15 14 14 14 14 14 13 13 13 13 13 13 13 13 13 13 13 13 13 15 15 15 15
20 20 20 20 20 20 19 19 19 18 18 18 17 17 17 16 16 15 15 15 14 14 14 14 13 13 13 13 13 13 12 12 12 12 12 13 13 13 12 13 14 15 15
20 20 20 20 20 20 19 19 19 18 18 17 17 17 16 16 15 15 15 14 14 14 14 13 13 13 13 13 13 12 12 12 12 12 12 12 12 12 12 12 13 13 14
20 20 20 20 20 20 20 19 19 18 18 17 17 17 16 16 15 15 15 14 14 14 13 13 13 13 13 13 12 12 12 12 12 12 12 11 11 12 12 11 12 12 13
21 21 21 21 20 20 20 19 19 18 18 17 17 16 16 15 15 15 14 14 14 13 13 13 13 13 13 12 12 12 12 12 11 11 11 11 11 11 11 11 11 11 12
21 21 21 21 21 21 20 20 19 19 18 17 17 16 16 15 15 14 14 14 14 13 13 13 13 13 12 12 12 12 12 11 11 11 11 11 11 11 11 11 11 11 11
22 22 22 22 22 21 21 20 19 19 18 18 17 16 16 15 15 14 14 14 13 13 13 13 13 13 12 12 12 12 12 11 11 11 11 11 11 11 11 11 11 11 11
22 22 22 22 22 21 21 20 19 19 18 18 17 16 16 15 15 14 14 14 13 13 13 13 13 12 12 12 12 11 11 11 11 11 11 11 11 11 11 11 11 11 11
23 23 23 22 22 21 21 20 20 19 19 18 17 17 16 15 15 15 14 14 13 13 13 13 13 12 12 12 12 11 11 11 11 11 11 11 11 11 11 11 11 11 10
23 23 23 22 22 21 21 21 20 19 19 18 17 17 16 16 15 15 14 14 14 13 13 13 12 12 12 12 12 11 11 11 11 11 11 10 10 10 10 10 10 10 10
23 23 22 22 22 22 21 21 20 19 19 18 17 17 16 16 15 15 14 14 14 13 13 13 12 12 12 12 12 11 11 11 11 11 10 10 10 10 10 10 10 10 10
23 23 23 22 22 22 21 20 20 19 19 18 17 17 16 16 15 15 15 14 14 13 13 13 13 12 12 12 12 11 11 11 11 10 10 10 10 10 10 9 9 9 9
23 23 23 23 22 22 21 21 20 19 19 18 18 17 17 16 16 15 15 14 14 13 13 13 13 12 12 12 11 11 11 11 11 10 10 10 10 10 9 9 9 9 9
24 23 23 23 23 22 22 21 20 20 19 18 18 17 17 16 16 15 15 14 14 14 13 13 13 13 12 12 12 11 11 11 11 10 10 10 10 10 9 9 9 9 9
24 24 24 23 23 22 22 21 20 20 19 18 18 17 17 16 16 15 15 15 14 14 14 13 13 13 13 12 12 11 11 11 11 10 10 10 10 10 9 9 9 9 9
25 25 24 24 23 22 22 21 20 20 19 19 18 18 17 16 16 16 15 15 15 14 14 13 13 13 13 12 12 11 11 11 11 11 10 10 10 10 9 9 9 9 9
24 24 24 23 23 22 22 21 21 20 19 19 19 18 17 17 16 16 16 15 15 14 14 14 13 13 13 13 12 12 11 11 11 11 10 10 10 9 9 9 9 9 9
23 24 23 23 23 22 21 21 20 20 20 19 18 18 17 17 16 16 15 15 15 14 14 14 14 13 13 13 12 12 11 11 11 11 10 10 9 9 9 9 9 9 8
22 22 22 22 22 22 21 21 20 20 19 18 18 17 17 16 16 16 15 15 15 14 14 14 14 14 13 13 12 12 12 11 11 11 10 10 9 9 9 9 9 8 8
21 21 21 21 21 20 20 20 20 19 18 18 17 17 16 16 15 15 15 15 14 14 14 14 14 14 13 13 13 12 12 11 11 11 10 10 9 9 9 9 8 8 8
19 19 20 20 19 19 19 19 19 18 17 17 17 16 16 15 15 15 14 14 14 14 14 13 13 13 13 13 13 12 12 11 11 11 10 10 9 9 9 9 9 8 8
18 18 18 18 18 18 18 17 17 17 17 16 16 15 15 15 14 14 14 13 13 13 13 13 13 13 13 13 13 12 12 11 11 10 10 10 9 9 9 9 9 9 8
16 16 16 16 16 16 16 16 16 15 15 15 15 14 14 14 13 13 13 13 13 13 13 13 13 13 13 13 13 12 12 11 11 10 10 10 10 9 9 9 9 9 9
Wind_Speed
6 6 8 10 10 9 9 8 8 6 5 4 4 4 3 3 3 3 7 8 8 8 6 4 3 3 3 3 3 2 3 3 3 3 4 5 4 3 3 3 2 4 8
6 6 7 8 8 8 8 7 8 7 6 4 4 3 3 2 2 2 4 6 7 7 6 4 3 3 3 4 4 3 2 3 3 2 2 4 5 4 3 3 2 3 3
12 11 10 8 9 9 9 9 8 7 7 6 4 4 4 4 3 2 1 1 4 6 6 5 4 3 3 2 2 2 3 2 3 2 2 1 3 4 4 4 4 4 3
11 11 11 10 10 10 9 9 9 8 7 6 6 6 4 3 2 2 1 1 1 3 5 5 5 3 3 2 1 2 1 2 1 2 1 2 3 1 4 5 4 5 5
13 13 13 12 11 11 10 9 9 8 7 7 7 7 5 4 2 2 1 0 1 1 3 5 4 3 2 2 1 1 1 1 1 1 1 1 1 1 1 4 6 5 5
14 13 13 11 10 10 9 9 9 8 8 8 8 8 7 5 4 2 1 0 1 1 2 4 4 3 2 2 1 1 1 1 1 2 2 1 1 2 1 3 4 5 5
14 13 13 13 12 12 11 11 11 9 8 8 8 8 8 7 5 4 3 2 1 1 1 2 3 2 2 2 2 1 2 2 2 3 3 3 3 3 3 3 4 4 4
14 15 15 15 15 15 13 12 12 10 9 9 8 7 8 5 4 5 4 4 3 2 2 2 2 2 2 2 2 2 3 2 3 4 4 3 4 3 3 3 3 4 4
16 16 16 15 15 14 14 14 13 10 10 9 8 7 7 7 6 5 4 3 3 3 3 3 2 2 2 2 2 3 4 3 4 4 5 4 4 4 4 4 4 3 4
16 16 16 15 13 13 12 13 12 11 9 10 9 7 7 7 7 5 5 4 4 3 3 3 3 3 3 3 3 3 4 4 5 4 5 5 4 4 4 4 4 4 5
17 16 14 13 12 12 12 12 11 10 10 10 8 8 7 7 7 6 6 5 4 4 4 4 4 4 4 4 4 5 5 5 6 5 5 6 5 5 4 4 4 4 4
16 14 13 13 13 13 13 12 12 11 11 10 9 9 8 7 7 6 6 5 5 5 5 5 5 5 5 5 5 6 5 6 6 6 6 7 5 5 5 4 5 5 5
12 12 13 14 14 13 13 12 12 12 10 9 9 8 8 8 7 7 6 6 6 6 5 5 5 6 6 6 6 6 6 6 6 6 6 7 6 6 6 6 6 6 6
14 14 13 13 13 13 13 12 11 10 10 9 9 9 9 9 8 8 7 7 7 6 6 6 7 7 6 6 6 6 6 6 6 6 6 7 7 8 8 7 7 6 6
13 15 15 13 12 12 11 11 11 10 10 10 10 10 9 9 8 8 7 7 7 7 7 6 6 6 6 6 6 6 6 6 6 6 7 7 9 11 9 7 7 7 6
15 15 15 14 14 14 13 11 11 10 10 11 10 9 9 8 8 8 8 7 7 7 6 7 7 7 6 9 10 8 7 6 7 7 7 8 9 11 12 12 11 10 8
14 15 16 16 16 15 14 14 12 10 11 11 10 9 9 9 9 8 8 8 8 7 7 7 7 8 9 12 13 13 8 8 8 8 7 8 8 9 7 9 11 10 12
14 15 14 14 13 13 12 12 11 11 11 11 10 9 9 9 9 8 8 8 6 7 7 8 8 8 10 13 14 14 9 8 9 9 9 9 9 10 9 8 8 9 9
12 13 14 13 13 13 13 12 11 11 11 11 11 10 10 9 9 9 9 7 6 7 7 7 8 9 10 13 14 13 6 7 9 9 9 9 9 12 13 9 9 9 9
7 9 10 9 11 12 11 12 12 11 13 13 12 10 10 10 10 10 9 7 7 8 8 8 9 9 10 13 15 13 6 8 8 8 8 12 12 12 12 8 8 9 10
3 6 8 9 11 10 11 11 10 12 12 9 8 8 9 10 10 9 7 7 7 8 8 9 9 9 11 13 16 14 8 8 8 7 7 8 12 13 13 10 8 12 10
3 2 5 5 5 8 11 10 10 10 7 7 7 7 8 7 7 7 7 7 8 8 9 9 9 9 10 12 13 15 15 13 9 9 8 8 13 14 13 10 11 15 11
5 4 3 2 1 3 7 9 8 6 5 6 6 5 6 6 6 6 7 6 6 7 8 8 9 10 8 9 15 16 16 16 10 9 12 12 13 12 11 14 16 13 8
6 5 6 5 2 0 3 5 4 5 5 5 5 4 4 5 6 6 6 6 7 8 9 9 10 10 8 7 7 7 8 10 10 9 9 12 13 11 12 12 11 8 8
7 7 7 6 4 3 2 0 2 5 5 4 4 4 5 5 6 6 7 8 9 10 11 10 10 9 10 12 14 10 8 8 7 5 3 4 5 6 7 7 8 7 7
8 9 9 8 7 7 5 4 1 2 3 3 3 4 4 5 5 6 8 12 14 17 18 19 16 12 15 16 15 16 16 13 9 5 5 6 7 8 9 8 8 7 8
Wind_Direction
175 157 148 140 133 132 133 139 137 142 133 122 120 119 129 139 139 160 154 146 136 124 114 101 78 69 64 37 22 25 18 360 1 11 335 321 312 305 287 285 273 259 251
156 157 149 150 146 147 147 147 147 150 146 140 142 143 139 136 139 136 147 153 147 142 136 124 111 91 67 40 39 48 40 359 23 45 14 344 338 336 330 332 322 308 283
170 170 168 167 161 161 165 161 159 156 153 143 121 97 80 71 69 83 122 176 161 155 149 141 131 115 100 70 47 67 84 16 350 44 95 48 303 313 322 338 348 340 325
176 175 173 175 176 177 172 164 164 159 153 141 132 130 131 135 163 169 179 231 164 164 163 153 143 131 117 103 82 101 105 100 353 346 30 187 200 258 314 322 333 338 333
181 183 183 183 182 179 175 171 166 160 155 146 139 129 129 142 143 123 111 14 347 84 154 148 134 129 125 124 96 86 91 142 181 258 304 330 341 162 204 300 322 330 319
189 189 188 183 182 180 177 171 166 165 161 151 144 142 144 145 133 122 118 23 18 38 101 134 136 141 148 165 193 201 231 225 233 234 223 215 242 267 238 266 298 306 304
190 189 187 185 187 187 184 176 169 168 166 155 152 151 150 147 147 153 153 140 111 105 139 137 149 162 193 210 205 217 254 253 253 250 241 226 223 218 211 230 272 289 296
191 192 192 190 192 192 186 177 174 171 169 161 161 158 152 146 148 155 157 158 166 177 172 153 165 197 220 230 214 229 249 244 251 262 255 249 249 229 215 215 237 292 303
192 194 194 192 190 187 184 178 173 170 170 168 164 163 160 157 163 166 158 159 171 176 161 159 177 220 238 244 237 240 254 255 252 256 258 253 256 248 236 219 201 213 272
193 194 193 191 187 182 177 171 168 169 169 167 168 170 169 169 169 165 173 182 193 192 189 204 217 241 256 256 244 251 256 256 260 253 259 262 259 259 251 238 223 204 214
195 194 191 184 175 169 167 166 167 163 166 168 167 163 171 174 172 176 190 195 202 202 205 217 228 241 252 254 247 251 254 252 261 266 258 261 260 259 259 253 244 233 213
194 188 178 169 166 167 168 168 169 170 174 172 170 172 175 174 178 190 202 200 204 211 213 218 227 240 245 246 244 251 251 243 250 257 257 261 264 259 257 253 251 248 233
186 177 169 169 170 170 170 171 175 178 176 171 171 176 180 182 192 202 206 205 207 215 221 220 228 240 245 245 243 241 246 245 245 248 248 255 256 259 258 253 252 252 256
177 173 172 173 173 173 173 174 179 179 174 171 174 181 190 193 199 203 205 208 209 214 223 225 231 236 239 240 243 244 243 245 248 248 247 249 246 249 252 254 249 249 253
173 174 174 174 173 173 176 177 177 177 171 170 179 191 195 196 198 203 209 214 216 221 221 226 234 236 235 236 233 234 236 239 249 255 253 253 256 255 252 252 244 241 241
177 176 174 173 176 179 181 179 179 177 170 174 187 192 191 194 200 207 213 217 224 228 225 227 233 238 240 237 231 222 229 235 242 253 260 265 268 269 268 266 259 240 232
176 178 180 181 183 185 181 183 183 176 174 182 188 189 191 198 207 211 211 218 223 225 227 232 234 239 245 248 248 240 226 232 239 245 255 268 270 271 267 271 275 267 252
180 185 187 188 188 185 183 181 175 175 182 188 194 195 195 204 209 209 215 219 218 220 228 235 238 243 250 249 250 247 232 234 242 242 244 250 263 269 261 262 265 260 259
185 189 190 189 186 186 184 175 178 181 187 196 202 203 199 203 207 213 220 220 217 225 228 233 238 243 254 254 253 245 227 237 247 248 247 244 253 263 266 258 256 263 266
181 183 182 176 183 191 178 176 185 188 199 205 207 204 200 203 210 215 218 217 217 228 232 240 241 241 250 255 253 241 220 237 251 255 252 250 250 258 265 247 243 255 261
183 168 164 178 193 182 170 180 186 201 209 205 201 201 203 208 214 219 220 222 226 234 239 245 249 247 249 256 255 243 215 227 241 250 254 251 249 253 258 248 235 246 254
22 125 154 183 185 169 170 180 196 207 194 185 192 202 209 215 218 219 230 231 230 239 247 251 260 259 256 252 253 244 229 223 226 241 247 249 253 253 255 254 249 254 259
25 38 100 125 106 167 175 189 209 190 170 173 192 207 216 224 224 222 233 239 237 241 250 250 256 262 257 251 247 245 239 230 225 239 243 249 257 261 262 259 258 259 250
26 35 56 62 46 92 184 203 191 156 159 182 202 210 221 239 244 242 239 242 246 249 254 254 255 258 256 251 247 238 236 235 234 242 252 259 264 261 258 263 265 251 236
34 47 53 47 25 24 32 81 163 157 171 194 213 227 235 245 256 259 253 252 251 248 248 254 250 249 254 250 231 218 222 218 221 214 243 256 262 263 262 262 259 250 239
41 44 43 41 34 35 26 7 8 154 172 213 246 256 259 263 267 275 283 268 262 267 258 253 252 253 247 250 241 228 224 215 189 178 233 250 254 257 261 263 264 254 244
Height
1526 1528 1531 1533 1535 1537 1539 1541 1543 1544 1546 1547 1547 1548 1549 1550 1551 1551 1552 1552 1551 1551 1550 1549 1548 1548 1547 1547 1547 1547 1547 1547 1546 1546 1545 1545 1546 1546 1546 1547 1547 1548 1548
1524 1527 1529 1532 1534 1536 1539 1541 1542 1544 1545 1546 1547 1548 1549 1549 1550 1550 1550 1550 1550 1549 1549 1548 1547 1547 1546 1546 1545 1545 1545 1545 1545 1544 1543 1543 1544 1543 1544 1544 1544 1544 1545
1523 1526 1528 1531 1534 1536 1538 1540 1541 1543 1544 1545 1546 1547 1548 1548 1549 1549 1549 1549 1548 1548 1547 1547 1546 1546 1545 1545 1544 1544 1544 1544 1544 1544 1544 1543 1542 1541 1541 1541 1542 1542 1542
1523 1525 1527 1530 1533 1535 1537 1539 1540 1542 1543 1544 1545 1545 1546 1546 1547 1547 1547 1547 1546 1546 1546 1546 1545 1545 1544 1544 1543 1543 1543 1542 1542 1542 1542 1543 1542 1542 1539 1539 1539 1539 1539
1522 1524 1526 1529 1531 1534 1536 1537 1539 1540 1541 1542 1543 1543 1544 1544 1544 1545 1545 1545 1544 1544 1544 1544 1544 1543 1543 1542 1542 1541 1541 1540 1540 1540 1540 1540 1540 1540 1539 1536 1536 1536 1537
1520 1522 1525 1528 1530 1532 1534 1536 1537 1538 1539 1540 1541 1541 1541 1542 1542 1542 1542 1542 1542 1542 1542 1542 1542 1541 1541 1540 1540 1539 1539 1538 1538 1537 1537 1537 1537 1537 1536 1535 1533 1532 1532
1517 1520 1522 1525 1527 1529 1531 1533 1535 1536 1537 1538 1538 1539 1539 1539 1539 1540 1540 1540 1540 1540 1540 1540 1540 1539 1539 1538 1538 1537 1536 1536 1535 1535 1535 1534 1534 1534 1534 1533 1531 1530 1529
1513 1515 1518 1521 1523 1526 1528 1530 1532 1533 1534 1535 1536 1536 1536 1537 1537 1537 1537 1537 1537 1538 1537 1537 1537 1537 1536 1536 1535 1535 1534 1533 1533 1532 1532 1531 1531 1531 1530 1530 1529 1527 1526
1509 1511 1514 1517 1520 1522 1524 1526 1528 1530 1532 1533 1533 1534 1534 1534 1534 1534 1535 1535 1535 1535 1535 1535 1535 1534 1534 1533 1532 1532 1531 1531 1530 1529 1528 1528 1528 1527 1527 1526 1526 1525 1522
1505 1507 1510 1513 1516 1519 1521 1524 1526 1527 1529 1530 1530 1531 1531 1532 1532 1532 1532 1532 1532 1532 1532 1532 1532 1532 1531 1530 1530 1529 1528 1527 1527 1526 1525 1524 1524 1523 1523 1522 1522 1521 1520
1499 1502 1506 1509 1513 1516 1518 1521 1523 1524 1526 1527 1527 1528 1529 1529 1529 1529 1529 1529 1529 1530 1530 1529 1529 1528 1528 1527 1526 1526 1525 1524 1523 1522 1521 1520 1520 1519 1518 1518 1517 1517 1516
1495 1498 1502 1506 1509 1512 1515 1517 1519 1521 1522 1524 1525 1525 1526 1526 1526 1526 1526 1527 1527 1527 1527 1526 1526 1525 1525 1524 1523 1522 1521 1520 1519 1518 1517 1516 1515 1514 1514 1513 1512 1511 1511
1492 1495 1499 1502 1505 1509 1511 1514 1516 1518 1519 1520 1521 1522 1523 1523 1523 1523 1524 1524 1524 1524 1523 1523 1522 1522 1521 1520 1519 1518 1517 1516 1515 1514 1513 1512 1511 1509 1509 1508 1507 1506 1505
1488 1491 1495 1498 1502 1505 1508 1510 1512 1514 1516 1517 1518 1519 1519 1520 1520 1521 1521 1521 1520 1520 1520 1520 1519 1518 1518 1516 1515 1514 1513 1512 1511 1510 1508 1507 1505 1504 1503 1502 1501 1500 1499
1484 1487 1490 1494 1498 1502 1505 1507 1509 1511 1512 1513 1514 1515 1516 1517 1517 1517 1517 1517 1517 1517 1517 1516 1515 1515 1514 1512 1511 1510 1509 1507 1506 1505 1503 1501 1499 1498 1497 1496 1495 1495 1494
1481 1484 1488 1491 1495 1498 1501 1503 1505 1507 1509 1510 1511 1512 1513 1513 1514 1514 1514 1514 1514 1513 1513 1512 1511 1510 1509 1508 1507 1506 1504 1503 1501 1499 1497 1495 1494 1492 1491 1490 1489 1489 1488
1478 1481 1485 1488 1491 1494 1497 1499 1501 1504 1505 1506 1508 1509 1509 1510 1510 1510 1510 1510 1510 1509 1508 1508 1507 1506 1504 1503 1502 1501 1500 1498 1496 1494 1492 1490 1488 1487 1485 1484 1484 1483 1483
1476 1479 1482 1485 1488 1491 1494 1496 1498 1500 1501 1503 1504 1505 1505 1506 1506 1506 1506 1506 1506 1505 1504 1503 1502 1501 1500 1499 1497 1496 1495 1493 1491 1489 1487 1485 1483 1482 1480 1479 1477 1476 1476
1473 1476 1479 1482 1485 1487 1490 1492 1494 1496 1497 1498 1500 1501 1501 1502 1502 1502 1502 1502 1501 1500 1499 1498 1497 1496 1494 1494 1492 1491 1489 1487 1486 1484 1482 1480 1478 1476 1475 1473 1471 1470 1469
1472 1474 1476 1479 1481 1483 1486 1488 1490 1491 1492 1494 1495 1497 1497 1498 1498 1498 1497 1497 1496 1495 1494 1493 1492 1490 1489 1488 1487 1486 1484 1482 1480 1478 1476 1474 1472 1470 1469 1467 1465 1463 1462
1471 1472 1473 1475 1477 1480 1482 1484 1485 1487 1488 1490 1491 1492 1493 1493 1493 1493 1493 1492 1491 1490 1489 1487 1486 1485 1483 1482 1481 1480 1478 1476 1473 1472 1470 1468 1466 1464 1462 1461 1459 1457 1456
1470 1470 1471 1472 1474 1476 1478 1479 1480 1482 1484 1485 1486 1487 1488 1489 1489 1488 1487 1486 1486 1484 1483 1481 1480 1478 1477 1476 1475 1473 1472 1470 1467 1465 1463 1461 1459 1457 1456 1454 1452 1451 1449
1470 1471 1471 1472 1473 1474 1475 1476 1478 1480 1481 1481 1482 1483 1484 1484 1484 1483 1482 1481 1480 1478 1476 1475 1473 1471 1470 1469 1468 1467 1465 1463 1461 1458 1456 1454 1452 1450 1448 1447 1445 1444 1442
1471 1471 1470 1470 1471 1472 1473 1475 1476 1477 1478 1478 1479 1479 1479 1479 1478 1477 1476 1475 1473 1472 1470 1468 1466 1464 1463 1462 1461 1459 1458 1456 1454 1451 1449 1447 1445 1443 1441 1439 1438 1436 1435
1471 1471 1470 1470 1471 1471 1472 1473 1473 1474 1474 1475 1475 1475 1474 1474 1473 1471 1470 1468 1467 1466 1463 1461 1459 1457 1455 1454 1454 1452 1450 1449 1447 1444 1442 1440 1438 1436 1434 1432 1430 1429 1427
1473 1472 1471 1471 1471 1470 1470 1470 1470 1471 1471 1471 1471 1470 1469 1468 1467 1465 1463 1461 1460 1458 1456 1453 1452 1449 1448 1446 1445 1444 1442 1441 1439 1437 1435 1433 1431 1429 1426 1425 1423 1421 1420